FW1396 Weather Reports


time (UTC)temp
F
wind
direction
speed
knots
gust
knots
rain 1hr
in
rain 24hr
in
rain mn
in
humidity
%
barometer
mb
20260505101024 60 165 0.0 0.0 0.00 0.00 0.00 84 989.5
20260505100525 60 165 0.0 0.0 0.00 0.00 0.00 84 989.5
20260505100024 60 165 0.0 0.9 0.00 0.00 0.00 84 989.7
20260505095525 60 165 0.0 0.9 0.00 0.00 0.00 84 989.8
20260505095024 60 165 0.0 0.0 0.00 0.00 0.00 83 989.9
20260505094525 60 165 0.0 0.0 0.00 0.00 0.00 83 989.7
20260505094023 60 165 0.0 0.0 0.00 0.00 0.00 83 989.5
20260505093021 60 165 0.0 0.0 0.00 0.00 0.00 83 989.7
20260505092521 61 165 0.0 0.0 0.00 0.00 0.00 82 989.7
20260505092023 61 165 0.0 0.0 0.00 0.00 0.00 82 989.8
20260505091522 61 165 0.0 0.0 0.00 0.00 0.00 82 989.9
20260505091021 61 165 0.0 0.0 0.00 0.00 0.00 82 990.0
20260505090522 61 165 0.0 0.0 0.00 0.00 0.00 82 990.2
20260505090254 61 165 0.0 0.0 0.00 0.00 0.00 81 990.0
20260505085522 61 165 0.0 0.0 0.00 0.00 0.00 81 990.1
20260505085252 61 165 0.0 0.0 0.00 0.00 0.00 81 990.1
20260505084520 62 165 0.0 0.0 0.00 0.00 0.00 81 990.1
20260505084021 62 165 0.0 0.0 0.00 0.00 0.00 80 990.1
20260505083752 62 165 0.0 0.0 0.00 0.00 0.00 80 990.2
20260505083020 62 165 0.0 0.0 0.00 0.00 0.00 80 990.2
20260505082519 62 165 0.0 0.0 0.00 0.00 0.00 79 990.3
20260505082019 62 165 0.0 0.0 0.00 0.00 0.00 79 990.3
20260505081519 62 165 0.0 0.0 0.00 0.00 0.00 78 990.3
20260505081017 63 165 0.0 0.9 0.00 0.00 0.00 78 990.4
20260505080517 63 165 0.0 0.9 0.00 0.00 0.00 78 990.3
20260505080016 64 165 0.0 0.9 0.00 0.00 0.00 75 990.2
20260505075747 64 165 0.0 0.9 0.00 0.00 0.00 75 990.2
20260505075015 0 165 0.0 0.9 0.00 0.00 0.00 990.3
20260505074515 0 165 0.0 0.9 0.00 0.00 0.00 990.3
20260505074242 0 165 0.0 0.0 0.00 0.00 0.00 990.4
20260505073744 65 165 0.9 1.7 0.00 0.00 0.00 73 990.3
20260505073013 65 165 0.9 1.7 0.00 0.00 0.00 73 990.1
20260505072513 66 230 0.0 0.0 0.00 0.00 0.00 72 990.3
20260505072013 66 230 0.0 0.0 0.00 0.00 0.00 72 990.0
20260505071512 66 230 0.0 2.6 0.00 0.00 0.00 71 989.9
20260505071012 66 230 0.9 3.5 0.00 0.00 0.00 71 989.8
20260505070743 66 272 2.6 3.5 0.00 0.00 0.00 71 989.7
20260505070012 66 206 3.5 6.1 0.00 0.00 0.00 70 989.7
20260505065511 66 206 3.5 6.1 0.00 0.00 0.00 70 989.7
20260505065010 67 243 2.6 5.2 0.00 0.00 0.00 70 989.5
20260505064511 67 213 3.5 7.8 0.00 0.00 0.00 70 989.4
20260505064009 67 247 3.5 7.8 0.00 0.00 0.00 70 989.5
20260505063509 67 241 2.6 5.2 0.00 0.00 0.00 70 989.5
20260505063010 67 233 0.9 4.3 0.00 0.00 0.00 70 989.6
20260505062510 67 248 1.7 4.3 0.00 0.00 0.00 70 989.8
20260505062011 0 264 0.0 0.0 0.00 0.00 0.00 989.9
20260505061739 0 264 0.0 0.0 0.00 0.00 0.00 990.0
20260505061008 67 258 1.7 3.5 0.00 0.00 0.00 69 990.1
20260505060508 67 258 1.7 5.2 0.00 0.00 0.00 69 990.1
20260505060008 67 245 3.5 5.2 0.00 0.00 0.00 69 990.1
20260505055740 67 255 3.5 6.1 0.00 0.00 0.00 69 990.1
20260505055007 68 252 3.5 6.1 0.00 0.00 0.00 69 990.3
20260505054507 68 251 3.5 6.1 0.00 0.00 0.00 69 990.5
20260505054007 68 255 3.5 5.2 0.00 0.00 0.00 68 990.6
20260505053506 68 243 3.5 6.1 0.00 0.00 0.00 68 990.6
20260505053237 68 266 4.3 6.1 0.00 0.00 0.00 68 990.6
20260505052738 68 212 5.2 7.8 0.00 0.00 0.00 68 990.7
20260505052006 68 230 4.3 7.8 0.00 0.00 0.00 68 990.7
20260505051504 68 244 3.5 7.8 0.00 0.00 0.00 68 990.7
20260505051006 68 264 4.3 7.8 0.00 0.00 0.00 67 990.7
20260505050504 68 261 3.5 5.2 0.00 0.00 0.00 67 990.8
20260505050237 69 257 4.3 8.7 0.00 0.00 0.00 67 990.6
20260505041502 70 245 2.6 6.1 0.00 0.00 0.00 65 991.0
20260505041233 70 254 3.5 6.1 0.00 0.00 0.00 65 991.1
20260505040501 70 255 4.3 6.1 0.00 0.00 0.00 64 991.1
20260505040000 70 259 4.3 5.2 0.00 0.00 0.00 64 990.9
20260505035500 70 271 3.5 5.2 0.00 0.00 0.00 64 991.0
20260505035001 70 266 3.5 5.2 0.00 0.00 0.00 64 991.0
20260505034731 70 254 3.5 5.2 0.00 0.00 0.00 63 991.0
20260505034000 70 244 3.5 8.7 0.00 0.00 0.00 63 991.0
20260505033502 71 243 5.2 8.7 0.00 0.00 0.00 63 991.0
20260505032959 71 238 5.2 6.1 0.00 0.00 0.00 63 991.0
20260505032500 71 241 5.2 8.7 0.00 0.00 0.00 62 991.0
20260505032001 71 241 4.3 8.7 0.00 0.00 0.00 62 991.0
20260505031459 71 251 5.2 8.7 0.00 0.00 0.00 62 991.0
20260505030959 0 261 4.3 5.2 0.00 0.00 0.00 990.9
20260505030457 71 261 4.3 8.7 0.00 0.00 0.00 62 990.8
20260505025958 71 264 4.3 8.7 0.00 0.00 0.00 62 990.7
20260505025456 71 264 5.2 8.7 0.00 0.00 0.00 62 990.6
20260505024956 71 272 4.3 8.7 0.00 0.00 0.00 62 990.7
20260505023957 71 250 5.2 7.8 0.00 0.00 0.00 62 990.5
20260505023503 72 221 2.6 6.1 0.00 0.00 0.00 61 990.4
20260505022956 72 243 3.5 8.7 0.00 0.00 0.00 61 990.4
20260505022457 72 262 5.2 8.7 0.00 0.00 0.00 61 990.2
20260505021958 72 243 3.5 6.1 0.00 0.00 0.00 60 990.1
20260505021457 72 233 4.3 6.1 0.00 0.00 0.00 60 990.0
20260505020956 73 243 2.6 6.1 0.00 0.00 0.00 59 990.0
20260505020456 73 206 2.6 5.2 0.00 0.00 0.00 59 989.9
20260505020227 73 234 3.5 5.2 0.00 0.00 0.00 58 989.9
20260505015456 74 248 4.3 9.6 0.00 0.00 0.00 58 989.9
20260505015227 74 265 3.5 9.6 0.00 0.00 0.00 58 989.9
20260505014456 74 233 6.1 9.6 0.00 0.00 0.00 58 989.7
20260505014228 74 237 4.3 7.8 0.00 0.00 0.00 58 989.7
20260505013455 74 252 4.3 7.8 0.00 0.00 0.00 57 989.8
20260505013226 74 251 5.2 13.0 0.00 0.00 0.00 57 989.8
20260505012454 74 234 5.2 13.0 0.00 0.00 0.00 57 989.6
20260505011955 74 240 2.6 6.1 0.00 0.00 0.00 56 989.6
20260505011455 75 279 4.3 11.3 0.00 0.00 0.00 56 989.6
20260505011226 75 251 5.2 11.3 0.00 0.00 0.00 56 989.6
20260505010456 75 247 4.3 5.2 0.00 0.00 0.00 55 989.6
20260505005954 76 245 3.5 6.1 0.00 0.00 0.00 55 989.6
20260505005455 76 257 3.5 6.1 0.00 0.00 0.00 54 989.6
20260505004954 76 250 3.5 7.8 0.00 0.00 0.00 54 989.5
20260505004455 76 227 5.2 7.8 0.00 0.00 0.00 54 989.5
20260505003955 0 258 6.1 5.2 0.00 0.00 0.00 989.5
20260505003455 77 258 6.1 13.0 0.00 0.00 0.00 53 989.4
20260505003224 77 274 6.1 13.0 0.00 0.00 0.00 53 989.4
20260505002453 77 244 4.3 9.6 0.00 0.00 0.00 52 989.4
20260505001953 77 237 7.0 9.6 0.00 0.00 0.00 52 989.3
20260505001451 78 231 6.1 10.4 0.00 0.00 0.00 51 989.2
20260505000952 78 231 6.1 10.4 0.00 0.00 0.00 51 989.3
20260504235952 78 257 5.2 14.8 0.00 0.00 0.00 51 989.1
20260504235452 78 258 6.1 13.0 0.00 0.00 0.00 51 989.0
20260504234952 78 266 7.0 13.0 0.00 0.00 0.00 50 989.0
20260504234453 79 255 6.1 9.6 0.00 0.00 0.00 50 989.1
20260504233950 79 264 6.1 9.6 0.00 0.00 0.00 49 989.1
20260504233450 79 264 6.1 10.4 0.00 0.00 0.00 49 989.1
20260504232950 79 252 9.6 15.6 0.00 0.00 0.00 48 989.1
20260504232449 79 275 9.6 15.6 0.00 0.00 0.00 48 989.2
20260504231950 0 0.0 0.0 0.00 0.00 0.00 989.2
20260504231448 0 0.0 0.0 0.00 0.00 0.00 989.3
20260504230948 0 276 4.3 7.8 0.00 0.00 0.00 989.3
20260504230446 80 276 4.3 11.3 0.00 0.00 0.00 47 989.2
20260504225946 80 258 5.2 11.3 0.00 0.00 0.00 47 989.3
20260504225446 80 231 7.8 10.4 0.00 0.00 0.00 47 989.3
20260504224946 80 248 6.1 13.9 0.00 0.00 0.00 47 989.3
20260504224446 80 244 10.4 13.9 0.00 0.00 0.00 46 989.2
20260504223946 80 275 7.0 12.2 0.00 0.00 0.00 46 989.3
20260504223444 80 275 7.0 12.2 0.00 0.00 0.00 46 989.3
20260504222947 0 0.0 0.0 0.00 0.00 0.00 989.2
20260504222214 0 251 3.5 2.6 0.00 0.00 0.00 989.4
20260504221441 81 251 3.5 10.4 0.00 0.00 0.00 45 989.3
20260504220940 81 295 4.3 10.4 0.00 0.00 0.00 45 989.4
20260504220442 0 0.0 0.0 0.00 0.00 0.00 989.4
20260504215940 0 0.0 0.0 0.00 0.00 0.00 989.4
20260504215709 0 0.0 0.0 0.00 0.00 0.00 989.3
20260504214436 81 257 10.4 13.0 0.00 0.00 0.00 45 989.4
20260504213936 0 272 10.4 7.8 0.00 0.00 0.00 989.5
20260504213435 81 272 10.4 14.8 0.00 0.00 0.00 46 989.6
20260504212933 81 262 11.3 14.8 0.00 0.00 0.00 46 989.6
20260504212437 81 266 7.0 8.7 0.00 0.00 0.00 46 989.7
20260504211935 81 266 7.0 8.7 0.00 0.00 0.00 46 989.5
20260504211705 0 0.0 0.0 0.00 0.00 0.00 989.5
20260504210932 0 0.0 0.0 0.00 0.00 0.00 989.6
20260504210434 0 0.0 0.0 0.00 0.00 0.00 989.5
20260504210201 81 227 6.1 7.8 0.00 0.00 0.00 46 989.8
20260504205428 81 227 6.1 8.7 0.00 0.00 0.00 46 989.7
20260504204929 81 281 4.3 9.6 0.00 0.00 0.00 46 989.8
20260504204428 82 265 6.1 10.4 0.00 0.00 0.00 45 989.8
20260504203928 82 278 6.1 10.4 0.00 0.00 0.00 45 989.9
20260504203427 0 0.0 0.0 0.00 0.00 0.00 989.9
20260504202926 0 0.0 0.0 0.00 0.00 0.00 990.0
20260504202425 0 0.0 0.0 0.00 0.00 0.00 990.2
20260504201924 0 358 5.2 8.7 0.00 0.00 0.00 990.1
20260504201423 0 358 5.2 8.7 0.00 0.00 0.00 990.1
20260504200923 81 258 12.2 15.6 0.00 0.00 0.00 44 990.0
20260504200421 81 258 12.2 15.6 0.00 0.00 0.00 44 990.2
20260504195920 81 279 10.4 13.0 0.00 0.00 0.00 44 990.3
20260504195421 0 0.0 0.0 0.00 0.00 0.00 990.4
20260504194920 0 0.0 0.0 0.00 0.00 0.00 990.3
20260504194424 0 0.0 0.0 0.00 0.00 0.00 990.4
20260504193940 0 0.0 0.0 0.00 0.00 0.00 990.4
20260504193416 0 0.0 0.0 0.00 0.00 0.00 990.5
20260504193147 0 226 5.2 7.8 0.00 0.00 0.00 990.5
20260504192645 0 226 5.2 7.8 0.00 0.00 0.00 990.4
20260504191914 0 0.0 0.0 0.00 0.00 0.00 990.6
20260504191413 0 0.0 0.0 0.00 0.00 0.00 990.6
20260504190912 0 0.0 0.0 0.00 0.00 0.00 990.6
20260504190410 0 0.0 0.0 0.00 0.00 0.00 990.7
20260504185910 0 0.0 0.0 0.00 0.00 0.00 990.8
20260504185408 80 233 7.0 11.3 0.00 0.00 0.00 46 990.8
20260504184907 80 233 7.0 13.0 0.00 0.00 0.00 46 990.7
20260504184407 80 254 7.0 13.0 0.00 0.00 0.00 46 990.7
20260504183907 80 258 7.8 17.4 0.00 0.00 0.00 45 990.8
20260504183406 80 233 7.8 17.4 0.00 0.00 0.00 46 991.0
20260504182905 80 245 7.0 17.4 0.00 0.00 0.00 45 991.0
20260504182406 80 266 11.3 17.4 0.00 0.00 0.00 44 991.0
20260504181907 80 238 8.7 13.9 0.00 0.00 0.00 46 991.1
20260504181407 80 251 7.8 14.8 0.00 0.00 0.00 46 991.0
20260504180905 80 251 7.8 14.8 0.00 0.00 0.00 46 991.0
20260504180405 79 268 7.0 6.1 0.00 0.00 0.00 44 991.2
20260504175907 79 268 7.0 11.3 0.00 0.00 0.00 44 991.3
20260504175404 79 269 7.8 16.5 0.00 0.00 0.00 44 991.3
20260504174904 79 266 10.4 16.5 0.00 0.00 0.00 45 991.3
20260504174402 79 220 7.0 14.8 0.00 0.00 0.00 46 991.5
20260504173904 79 207 7.8 12.2 0.00 0.00 0.00 46 991.5
20260504173403 79 254 8.7 16.5 0.00 0.00 0.00 47 991.6
20260504173133 79 240 7.8 16.5 0.00 0.00 0.00 47 991.5
20260504172407 78 272 9.6 16.5 0.00 0.00 0.00 46 991.7
20260504171902 78 247 7.8 11.3 0.00 0.00 0.00 46 991.8
20260504171404 78 233 3.5 18.2 0.00 0.00 0.00 48 991.9
20260504170902 78 243 13.0 18.2 0.00 0.00 0.00 53 992.0
20260504170403 0 0.0 0.0 0.00 0.00 0.00 991.9
20260504160355 0 0.0 0.0 0.00 0.00 0.00 992.8
20260504150849 73 250 7.8 10.4 0.00 0.00 0.00 54 993.1
20260504150343 73 250 7.8 10.4 0.00 0.00 0.00 54 993.1
20260504140841 70 262 8.7 13.9 0.00 0.00 0.00 60 993.5
20260504140341 70 244 6.1 13.9 0.00 0.00 0.00 60 993.7
20260504130336 61 233 3.5 7.8 0.00 0.00 0.00 80 993.8
20260504110331 53 83 1.7 1.7 0.00 0.00 0.00 89 993.5